Terminal Aerodrome Forecast
Issued by NWS

Home | Current Version | Previous Version | Text Only | Print | Product List | Glossary On
Versions: 1 2 3 4 5 6 7 8 9 10 11 12 13 14 15 16 17 18 19 20 21 22 23 24 25 26 27 28 29 30 31 32 33 34 35 36 37 38 39 40 41 42 43 44 45 46 47 48 49 50
000
FTAK31 PANC 221735
TAFASD
TAF
PASD 221735Z 2218/2318 07004KT P6SM BKN012 OVC025
     FM222300 12008KT 4SM -RA OVC012
     FM230500 18017G30KT P6SM VCSH BKN012 OVC025
     FM231500 19012KT 4SM -RA BR OVC012
      AMD LTD TO CLD VIS AND WIND=

USA.gov is the U.S. government's official web portal to all federal, state and local government web resources and services.